KI5NYZ Weather Reports


Display with metric or nautical units.
time (UTC)temp
F
wind
direction
speed
MPH
gust
MPH
rain 1hr
in
rain 24hr
in
rain mn
in
humidity
%
barometer
mb
20260901225020 96 182 4.0 8.0 0.04 0.42 0.34 27 1014.9
20260901224029 96 174 1.0 7.0 0.04 0.43 0.34 27 1014.9
20260901223020 96 180 5.0 10.0 0.05 0.42 0.33 28 1015.0
20260901222025 96 176 4.0 8.0 0.04 0.43 0.32 27 1015.0
20260901221020 97 182 6.0 11.0 0.04 0.43 0.32 27 1015.0
20260901220023 97 157 1.0 4.0 0.04 0.42 0.30 27 1015.1
20260901215102 97 181 4.0 9.0 0.05 0.44 0.30 28 1015.2
20260901214103 97 182 2.0 8.0 0.06 0.43 0.29 27 1015.3
20260901213022 97 183 3.0 9.0 0.06 0.43 0.29 28 1015.5
20260901212104 96 182 3.0 8.0 0.06 0.43 0.28 29 1015.7
20260901211023 96 181 4.0 11.0 0.05 0.42 0.27 28 1015.8
20260901210023 96 204 4.0 9.0 0.04 0.41 0.26 29 1016.0
20260901205023 96 182 6.0 11.0 0.04 0.41 0.25 30 1016.2
20260901204021 96 176 3.0 9.0 0.03 0.40 0.24 29 1016.3
20260901203019 95 170 2.0 11.0 0.03 0.40 0.23 32 1016.5
20260901202021 95 186 3.0 7.0 0.03 0.40 0.23 30 1016.6
20260901201019 93 188 2.0 6.0 0.04 0.40 0.22 33 1016.8
20260901200023 95 178 4.0 10.0 0.04 0.40 0.21 32 1016.9
20260901195020 94 127 1.0 5.0 0.04 0.40 0.21 32 1017.0
20260901194020 94 113 2.0 4.0 0.04 0.40 0.20 32 1017.1
20260901193044 94 165 2.0 6.0 0.04 0.40 0.20 32 1017.2
20260901192042 94 177 4.0 8.0 0.04 0.41 0.20 30 1017.3
20260901191020 94 178 4.0 8.0 0.03 0.41 0.18 31 1017.5
20260901190022 94 191 5.0 10.0 0.03 0.40 0.17 31 1017.6
20260901185023 92 113 2.0 7.0 0.04 0.40 0.17 33 1017.7
20260901184021 92 180 3.0 8.0 0.04 0.41 0.16 34 1017.8
20260901183021 92 129 1.0 5.0 0.04 0.40 0.15 34 1017.9
20260901182021 92 158 2.0 6.0 0.04 0.41 0.15 35 1017.9
20260901181021 92 197 5.0 10.0 0.04 0.41 0.15 36 1018.1
20260901180023 92 183 3.0 8.0 0.04 0.41 0.14 37 1018.2
20260901175043 92 181 3.0 7.0 0.03 0.40 0.13 37 1018.2
20260901174041 91 186 2.0 6.0 0.04 0.40 0.13 39 1018.4
20260901173019 91 207 4.0 10.0 0.04 0.40 0.12 39 1018.5
20260901172025 90 194 3.0 7.0 0.04 0.40 0.11 41 1018.5
20260901171039 89 177 4.0 9.0 0.04 0.41 0.11 42 1018.6
20260901170040 88 196 4.0 10.0 0.04 0.42 0.10 43 1018.6
20260901165041 88 196 4.0 9.0 0.05 0.42 0.10 44 1018.6
20260901164021 87 203 3.0 8.0 0.05 0.43 0.09 45 1018.7
20260901163045 86 184 3.0 9.0 0.05 0.43 0.08 46 1018.7
20260901162020 86 187 5.0 9.0 0.05 0.44 0.07 47 1018.5
20260901161019 85 202 4.0 8.0 0.04 0.44 0.07 47 1018.5
20260901160025 85 192 5.0 9.0 0.03 0.44 0.06 48 1018.6
20260901155021 84 186 4.0 7.0 0.03 0.44 0.05 49 1018.6
20260901154027 84 202 4.0 7.0 0.03 0.44 0.04 49 1018.5
20260901153024 83 183 3.0 7.0 0.03 0.43 0.03 50 1018.5
20260901152022 83 204 3.0 8.0 0.03 0.43 0.03 51 1018.6
20260901151043 82 191 3.0 6.0 0.03 0.43 0.03 52 1018.6
20260901150043 81 192 4.0 9.0 0.03 0.44 0.03 54 1018.6
20260901145025 80 194 4.0 7.0 0.02 0.43 0.02 55 1018.7
20260901144025 80 179 4.0 8.0 0.01 0.42 0.01 56 1018.7
20260901143024 79 181 4.0 8.0 0.00 0.42 0.00 58 1018.8
20260901142042 78 180 2.0 6.0 0.00 0.42 0.00 59 1018.8
20260901141023 77 175 2.0 6.0 0.00 0.42 0.00 60 1018.8
20260901140024 76 174 2.0 6.0 0.00 0.42 0.00 62 1018.7
20260901135020 76 174 2.0 5.0 0.00 0.42 0.00 62 1018.7
20260901134019 75 206 0.0 2.0 0.00 0.42 0.00 64 1018.7
20260901133021 73 163 1.0 4.0 0.00 0.42 0.00 65 1018.7
20260901132020 72 159 0.0 3.0 0.00 0.42 0.00 68 1018.6
20260901131045 72 99 1.0 3.0 0.00 0.42 0.00 69 1018.5
20260901130020 71 211 1.0 3.0 0.00 0.42 0.00 69 1018.5
20260901125020 71 222 2.0 4.0 0.00 0.42 0.00 69 1018.4
20260901124022 71 221 2.0 4.0 0.00 0.42 0.00 69 1018.4
20260901123104 71 222 2.0 4.0 0.00 0.42 0.00 68 1018.3
20260901122023 71 220 2.0 4.0 0.00 0.42 0.00 69 1018.3
20260901121123 72 203 3.0 5.0 0.00 0.42 0.00 68 1018.2
20260901120022 72 190 1.0 5.0 0.00 0.42 0.00 68 1018.2
20260901115024 71 191 2.0 5.0 0.00 0.42 0.00 68 1018.1
20260901114024 71 205 1.0 4.0 0.00 0.42 0.00 69 1018.1
20260901113101 71 199 0.0 6.0 0.00 0.42 0.00 68 1018.0
20260901112028 72 129 0.0 3.0 0.00 0.42 0.00 67 1017.9
20260901111023 72 193 1.0 4.0 0.00 0.42 0.00 66 1017.9
20260901110043 72 185 2.0 6.0 0.00 0.42 0.00 66 1017.9
20260901105022 73 178 2.0 5.0 0.00 0.42 0.00 65 1017.9
20260901104019 73 180 1.0 5.0 0.00 0.42 0.00 64 1017.8
20260901103020 74 179 1.0 4.0 0.00 0.42 0.00 63 1017.8
20260901102020 74 168 2.0 6.0 0.00 0.42 0.00 62 1017.8
20260901101019 74 171 2.0 6.0 0.00 0.42 0.00 62 1017.7
20260901100024 75 170 2.0 5.0 0.00 0.42 0.00 61 1017.7
20260901095021 75 170 2.0 6.0 0.00 0.42 0.00 60 1017.7
20260901094020 75 172 2.0 5.0 0.00 0.42 0.00 59 1017.7
20260901093042 75 169 2.0 6.0 0.00 0.42 0.00 59 1017.7
20260901092042 75 172 2.0 5.0 0.00 0.42 0.00 59 1017.6
20260901091021 75 180 1.0 5.0 0.00 0.42 0.00 60 1017.5
20260901090020 74 170 1.0 5.0 0.00 0.42 0.00 60 1017.6
20260901085022 74 171 1.0 4.0 0.00 0.42 0.00 60 1017.5
20260901084024 74 172 1.0 3.0 0.00 0.42 0.00 59 1017.4
20260901083022 74 183 1.0 3.0 0.00 0.42 0.00 58 1017.4
20260901082021 74 199 0.0 2.0 0.00 0.42 0.00 57 1017.4
20260901081021 73 185 1.0 3.0 0.00 0.42 0.00 57 1017.4
20260901080027 73 203 0.0 1.0 0.00 0.42 0.00 58 1017.3
20260901075022 73 192 0.0 1.0 0.00 0.42 0.00 57 1017.3
20260901074022 74 0 0.0 0.0 0.00 0.42 0.00 57 1017.2
20260901073029 74 117 0.0 1.0 0.00 0.42 0.00 57 1017.2
20260901072020 74 0 0.0 0.0 0.00 0.42 0.00 56 1017.2
20260901071019 74 0 0.0 0.0 0.00 0.42 0.00 56 1017.3
20260901070022 74 147 0.0 2.0 0.00 0.42 0.00 55 1017.2
20260901065020 75 0 0.0 0.0 0.00 0.42 0.00 54 1017.2
20260901064044 75 0 0.0 0.0 0.00 0.42 0.00 54 1017.2
20260901063020 75 136 0.0 2.0 0.00 0.42 0.00 54 1017.2
20260901062023 75 0 0.0 0.0 0.00 0.42 0.00 53 1017.1
20260901061020 75 0 0.0 0.0 0.00 0.42 0.00 52 1017.1
20260901060023 75 0 0.0 0.0 0.00 0.42 0.00 51 1017.1
20260901055020 75 168 0.0 2.0 0.00 0.42 0.00 50 1017.1
20260901054022 76 0 0.0 0.0 0.00 0.42 0.00 50 1017.0
20260901053103 76 148 0.0 2.0 0.00 0.42 0.00 49 1017.0
20260901052021 76 222 0.0 2.0 0.00 0.42 0.00 48 1016.9
20260901051022 76 316 0.0 0.0 0.00 0.42 0.00 48 1016.9
20260901050026 76 0 0.0 0.0 0.00 0.42 0.00 47 1016.9
20260901045024 77 324 0.0 1.0 0.00 0.42 0.42 46 1016.9
20260901044026 77 0 0.0 0.0 0.00 0.42 0.42 45 1016.9
20260901043023 77 97 0.0 2.0 0.00 0.42 0.42 45 1017.0
20260901042022 77 0 0.0 0.0 0.00 0.42 0.42 45 1016.9
20260901041025 78 0 0.0 0.0 0.00 0.42 0.42 44 1016.8
20260901040039 78 95 0.0 2.0 0.00 0.42 0.42 43 1016.7
20260901035021 79 0 0.0 0.0 0.00 0.42 0.42 42 1016.6
20260901034020 80 0 0.0 0.0 0.00 0.42 0.42 41 1016.5
20260901033044 80 176 0.0 2.0 0.00 0.42 0.42 40 1016.4
20260901032022 80 186 0.0 3.0 0.00 0.42 0.42 40 1016.1
20260901031100 80 195 0.0 3.0 0.00 0.42 0.42 40 1015.9
20260901030023 80 0 0.0 0.0 0.00 0.42 0.42 40 1015.7
20260901025023 81 224 0.0 2.0 0.00 0.42 0.42 39 1015.4
20260901024020 82 175 0.0 2.0 0.00 0.42 0.42 37 1015.3
20260901023028 82 188 0.0 2.0 0.00 0.42 0.42 37 1015.1
20260901022023 82 184 0.0 3.0 0.00 0.42 0.42 37 1014.9
20260901021022 83 0 0.0 0.0 0.00 0.42 0.42 37 1014.9
20260901020027 85 176 0.0 2.0 0.00 0.42 0.42 34 1014.8
20260901015023 86 180 0.0 3.0 0.00 0.42 0.42 33 1014.7
20260901014024 87 186 0.0 3.0 0.00 0.42 0.42 32 1014.6
20260901013029 88 173 1.0 5.0 0.00 0.42 0.42 30 1014.5
20260901012046 89 173 2.0 5.0 0.01 0.42 0.42 29 1014.5
20260901011020 90 178 1.0 5.0 0.01 0.42 0.42 29 1014.5
20260901010047 91 182 1.0 4.0 0.02 0.42 0.42 28 1014.5
20260901005021 92 182 2.0 6.0 0.03 0.42 0.42 28 1014.4
20260901004019 93 170 3.0 6.0 0.03 0.42 0.42 28 1014.4
20260901003021 94 174 3.0 6.0 0.04 0.42 0.41 26 1014.3
20260901002020 94 171 2.0 8.0 0.05 0.41 0.41 25 1014.3
20260901001021 95 171 3.0 8.0 0.05 0.41 0.40 25 1014.4
20260901000019 95 164 2.0 7.0 0.06 0.41 0.40 25 1014.3
20260831235024 95 169 2.0 7.0 0.05 0.40 0.39 26 1014.2
20260831234042 95 180 4.0 9.0 0.05 0.40 0.38 26 1014.3
20260831233024 96 177 4.0 10.0 0.05 0.39 0.37 25 1014.3
20260831232022 95 180 4.0 11.0 0.05 0.39 0.36 26 1014.4
20260831231021 96 181 4.0 9.0 0.05 0.38 0.35 25 1014.5
20260831230043 96 179 3.0 9.0 0.04 0.37 0.34 25 1014.7